Location: Cluj-Napoca
(46.7712°N, 23.6236°E)
Time: 00:12:17
(UTC+03:00)

N. Korean satellite - Pass Details

Date: 01 October 2021
Orbit: 450 x 495 km, 97.3° (Epoch: 23 October)

Event Time Altitude Azimuth Distance (km) Brightness Sun altitude
Rises 06:49:46 0° 12° (NNE) 2,547 10.4 -6.7°
Reaches altitude 10° 06:51:49 10° 12° (NNE) 1,670 9.5 -6.4°
Maximum altitude 06:55:25 87° 282° (WNW) 494 6.6 -5.8°
Drops below altitude 10° 06:59:02 10° 195° (SSW) 1,677 9.1 -5.1°
Sets 07:01:06 0° 195° (SSW) 2,559 10.1 -4.8°
